Regional Weather Roundup
Issued by NWS Little Rock, AR

Home | Current Version | Previous Version | Text Only | Print | Product List | Glossary Off
Versions: 1 2 3 4 5 6 7 8 9 10 11 12 13 14 15 16 17 18 19 20 21 22 23 24 25 26 27 28 29 30 31 32 33 34 35 36 37 38 39 40 41 42 43 44 45 46 47 48 49 50

000
ASUS44 KLZK 310205
RWRLZK

WEATHER ROUNDUP FOR ARKANSAS
NATIONAL WEATHER SERVICE LITTLE ROCK AR
900 PM CDT THU JUL 30 2015

NOTE: "FAIR" INDICATES FEW OR NO CLOUDS BELOW 12,000 FEET WITH NO
SIGNIFICANT WEATHER AND/OR OBSTRUCTIONS TO VISIBILITY.

ARZ001-003-010-029-310300-
NORTHWEST ARKANSAS

CITY           SKY/WX    TMP DP  RH WIND       PRES   REMARKS
FAYETTEVILLE   PTCLDY    76  73  91 E3        30.13R
FORT SMITH     CLOUDY    81  70  69 E3        30.06R
HARRISON       MOCLDY    75  64  68 CALM      30.15S
BENTONVILLE    PTCLDY    79  63  57 E6        30.15R
ROGERS         PTCLDY    76  67  73 NE3       30.15R
SILOAM SPGS    PTCLDY    77  63  61 CALM      30.12R
HIGHFILL       PTCLDY    79  66  64 E3        30.13S
SPRINGDALE     PTCLDY    77  66  69 E6        30.15S
$$

ARZ004-005-016-310300-
NORTH CENTRAL ARKANSAS

CITY           SKY/WX    TMP DP  RH WIND       PRES   REMARKS
BATESVILLE     PTCLDY    77  64  65 E3        30.10S
FLIPPIN        CLOUDY    75  66  73 CALM      30.10F
MTN HOME       MOCLDY    73  66  78 CALM      30.12S
$$

ARZ040-041-310300-
WEST CENTRAL ARKANSAS

CITY           SKY/WX    TMP DP  RH WIND       PRES   REMARKS
MENA           CLOUDY    75  73  94 CALM      30.10R
MOUNT IDA      LGT RAIN  75  73  93 CALM      30.06S FOG
$$

ARZ009-017-025-026-028-310300-
NORTHEAST ARKANSAS

CITY           SKY/WX    TMP DP  RH WIND       PRES   REMARKS
JONESBORO      CLEAR     74  66  76 N3        30.09S
NEWPORT        CLEAR     77  68  73 NE6       30.10S
WALNUT RIDGE   CLEAR     79  64  61 CALM      30.10R
BLYTHEVILLE    CLEAR     74  68  81 NE5       30.09R
$$

ARZ022-023-033-042-044-310300-
CENTRAL ARKANSAS

CITY           SKY/WX    TMP DP  RH WIND       PRES   REMARKS
LITTLE ROCK    MOCLDY    81  62  52 E8        30.07F
N LITTLE ROCK  MOCLDY    80  64  59 E7        30.07F
JACKSONVILLE   PTCLDY    79  64  60 NE2       30.08S
SEARCY         CLEAR     78  64  61 NE6       30.10S
HOT SPRINGS    CLOUDY    85  66  53 E7        30.07R HX  87
RUSSELLVILLE   CLOUDY    81  64  56 NE6       30.08R
CLINTON        LGT RAIN  73  72  94 CALM      30.11S
$$

ARZ036-310300-
EAST ARKANSAS

CITY           SKY/WX    TMP DP  RH WIND       PRES   REMARKS
WEST MEMPHIS   CLEAR     77  65  66 N6        30.06S
$$

ARZ050-053-066-070-073-310300-
SOUTHWEST ARKANSAS

CITY           SKY/WX    TMP DP  RH WIND       PRES   REMARKS
ARKADELPHIA    FAIR      83  72  69 CALM      30.06S HX  88
CAMDEN         PTCLDY    81  66  61 CALM      30.05R
TEXARKANA      CLOUDY    78  74  87 CALM      30.05S
EL DORADO      MOCLDY    84  70  62 NE7       30.05S HX  88
DE QUEEN       MOCLDY    78  74  87 CALM      30.03R
$$

ARZ056-057-069-310300-
SOUTHEAST ARKANSAS

CITY           SKY/WX    TMP DP  RH WIND       PRES   REMARKS
PINE BLUFF     PTCLDY    77  66  68 N6        30.07S
STUTTGART      PTCLDY    77  64  65 MISG      30.08R
MONTICELLO     CLEAR     82  66  58 N5        30.05S

$$





USA.gov is the U.S. government's official web portal to all federal, state and local government web resources and services.